[[{"header":{"parameterUnit":"m.s-1","parameterCategory":1,"la1":30.2991,"la2":30.254,"lo1":-89.0895,"lo2":-89.0444,"dy":0.0017,"dx":0.0017,"nx":28,"ny":28,"refTime":"2023-09-21T09:00:00:Z","depth":0,"parameterNumber":2,"parameterNumberName":"U-component_of_WINDS"},"data":[0,0,0,0,0,0,0,0,0,0,0,0,0,0,0,0,0,0,0,0,0,0,0,0,0,0,0,0,0,0,0,0,0,0,0,0,0,0,0,0,0,0,0,0,0,0,0,0,0,0,0,0,0,0,0,0,0,0,-4.4722,-4.4723,0,-4.4768,-4.4769,-4.4769,-4.4697,-4.4694,-4.4692,-4.469,-4.4739,-4.4743,-4.4746,0,0,0,0,0,0,0,0,0,0,0,0,0,-4.4575,-4.4578,-4.4722,-4.4723,-4.4723,-4.4768,-4.4769,-4.4769,-4.4697,-4.4694,-4.4691,-4.4688,-4.4738,-4.4742,-4.4747,0,0,0,0,0,0,0,0,0,0,0,0,0,-4.4632,-4.4579,-4.4722,-4.4693,-4.4691,-4.4768,-4.4769,-4.477,-4.4698,-4.4694,-4.469,-4.4687,-4.4736,-4.4742,-4.4747,-4.4856,0,0,-4.4764,-4.4766,0,0,0,0,0,0,0,0,-4.4629,-4.4637,-4.4696,-4.4695,-4.4693,-4.4723,-4.4735,-4.4799,-4.4699,-4.4695,-4.4689,-4.4685,-4.4737,-4.4742,-4.4759,-4.4859,-4.4861,-4.4764,-4.4768,-4.477,-4.4772,0,0,0,0,0,0,0,-4.4625,-4.4635,-4.474,-4.4697,-4.4695,-4.4678,-4.4682,-4.4747,-4.4737,-4.4695,-4.469,-4.4696,-4.4735,-4.4754,-4.476,-4.4862,-4.4764,-4.4769,-4.4773,-4.4775,-4.5055,-4.5059,0,0,0,0,0,0,-4.4624,-4.4632,-4.4739,-4.4742,-4.4651,-4.4684,-4.4688,-4.4717,-4.4736,-4.4735,-4.47,-4.4693,-4.4746,-4.4753,-4.4761,-4.4891,-4.477,-4.4775,-4.4778,-4.5051,-4.5056,-4.5061,0,0,0,0,0,0,-4.4621,-4.4634,-4.4737,-4.4686,-4.4697,-4.469,-4.4723,-4.472,-4.4739,-4.4739,-4.4737,-4.4721,-4.4744,-4.4753,-4.4834,-4.4892,-4.4778,-4.4783,-4.5046,-4.5053,-4.5058,-4.5152,0,0,0,0,0,0,-4.4617,-4.4634,-4.4674,-4.4687,-4.47,-4.4808,-4.4727,-4.4724,-4.4748,-4.474,-4.4758,-4.4758,-4.4742,-4.4826,-4.4839,-4.4898,-4.4787,-4.5041,-4.5049,-4.5056,-4.5144,-4.5161,-4.5175,0,0,0,0,0,-4.4612,-4.4699,-4.4677,-4.469,-4.4751,-4.4811,-4.4819,-4.4798,-4.4753,-4.4794,-4.4795,-4.4757,-4.4884,-4.4835,-4.4849,-4.491,-4.5037,-4.5047,-4.5056,-4.5137,-4.5158,-4.5175,0,0,0,0,0,0,-4.4693,-4.47,-4.4675,-4.4768,-4.479,-4.4799,-4.485,-4.4821,-4.4856,-4.4847,-4.482,-4.4825,-4.4911,-4.4918,-4.4864,-4.5018,-4.4953,-4.4966,-4.501,-4.5029,-4.5045,-4.5042,-4.4792,0,0,0,0,0,-4.4722,-4.477,-4.4773,-4.4855,-4.4867,-4.4857,-4.4883,-4.4865,-4.4886,-4.4895,-4.4901,-4.4925,-4.497,-4.5,-4.5041,-4.5145,-4.5149,-4.5194,-4.521,-4.5223,-4.5234,-4.5291,-4.5312,-4.5091,-4.5091,-4.5091,0,0,-4.4782,-4.4791,-4.4823,-4.4872,-4.4886,-4.4938,-4.4865,-4.4922,-4.496,-4.4904,-4.498,-4.4986,-4.501,-4.5103,-4.5144,-4.5112,-4.5296,-4.5235,-4.5245,-4.5249,-4.5303,-4.5324,-4.5343,-4.5098,-4.5097,-4.5096,0,0,-4.4917,-4.4929,-4.4999,-4.5015,-4.5038,-4.5031,-4.5048,-4.5062,-4.5064,-4.514,-4.5099,-4.5145,-4.5222,-4.5242,-4.5262,-4.5407,-4.5374,-4.5421,-4.5504,-4.556,-4.5577,-4.5592,-4.5645,-4.5664,-4.5432,-4.5432,-4.5433,0,-4.4989,-4.5063,-4.5039,-4.5099,-4.5122,-4.5074,-4.5146,-4.5163,-4.5199,-4.5216,-4.5179,-4.5277,-4.529,-4.5387,-4.5423,-4.544,-4.546,-4.5419,-4.5576,-4.5591,-4.5605,-4.5656,-4.5676,-4.5438,-4.5437,-4.5437,-4.5436,0,-4.5151,-4.5204,-4.5258,-4.5293,-4.5323,-4.5389,-4.5375,-4.5408,-4.5389,-4.5386,-4.5465,-4.5479,-4.5523,-4.5545,-4.5526,-4.564,-4.562,-4.558,-4.5515,-4.5632,-4.5679,-4.5698,-4.5446,-4.5444,-4.5442,-4.5441,0,0,-4.5338,-4.536,-4.538,-4.5397,-4.5419,-4.546,-4.5524,-4.5567,-4.5597,-4.5623,-4.5678,-4.5745,-4.5709,-4.5732,-4.5715,-4.5765,-4.5881,-4.5719,-4.5719,-4.575,-4.6009,-4.604,-4.6062,-4.5859,-4.5862,-4.5865,-4.6008,0,-4.5473,-4.5583,-4.5564,-4.5672,-4.5721,-4.5677,-4.5733,-4.5754,-4.5754,-4.5797,-4.5797,-4.5846,-4.5794,-4.5808,-4.5854,-4.5857,-4.5932,-4.5846,-4.5911,-4.5913,-4.5906,-4.6086,-4.6118,-4.6252,-4.6026,-4.6029,-4.6031,0,-4.5646,-4.5679,-4.5792,-4.5808,-4.5828,-4.5879,-4.5917,-4.5958,-4.5982,-4.5978,-4.6005,-4.598,-4.6046,-4.5979,-4.6071,-4.6012,-4.6038,-4.6043,-4.6048,-4.6054,-4.598,-4.6098,-4.6294,-4.6314,-4.6059,-4.6057,-4.6055,0,-4.5772,-4.5845,-4.5922,-4.5937,-4.5958,-4.5995,-4.6006,-4.6025,-4.6053,-4.6087,-4.6105,-4.6147,-4.617,-4.6203,-4.6191,-4.6143,-4.6286,-4.6217,-4.6286,-4.6287,-4.6318,-4.6316,-4.6522,-4.6334,-4.6333,-4.6333,-4.6332,0,-4.5926,-4.5997,-4.5979,-4.6027,-4.6106,-4.6084,-4.6163,-4.6168,-4.6187,-4.6235,-4.62,-4.6247,-4.6227,-4.6273,-4.6263,-4.6342,-4.6352,-4.6352,-4.6349,-4.6356,-4.6356,-4.6373,-4.6363,-4.6338,-4.6337,-4.6336,-4.6335,0,-4.608,-4.6071,-4.6152,-4.6166,-4.6171,-4.6229,-4.624,-4.6286,-4.6283,-4.6346,-4.636,-4.6356,-4.6409,-4.64,-4.6458,-4.6452,-4.655,-4.6535,-4.6542,-4.6539,-4.6608,-4.6602,-4.6832,-4.6861,-4.6653,-4.6655,-4.6657,0,-4.6179,-4.6232,-4.6252,-4.6282,-4.6295,-4.6344,-4.6372,-4.6353,-4.6384,-4.6416,-4.6458,-4.6507,-4.6546,-4.6632,-4.6636,-4.6681,-4.6667,-4.6745,-4.6674,-4.668,-4.667,-4.6667,-4.6673,-4.6759,-4.6761,-4.6763,-4.6765,0,-4.6356,-4.6349,-4.639,-4.6431,-4.6465,-4.6497,-4.6525,-4.6551,-4.6535,-4.6572,-4.6625,-4.6655,-4.6715,-4.6766,-4.6808,-4.682,-4.6791,-4.6787,-4.6806,-4.6813,-4.6816,-4.6817,-4.6581,-4.6782,-4.678,-4.6779,-4.6778,-4.6777,-4.6486,-4.6532,-4.6553,-4.6601,-4.662,-4.6647,-4.6691,-4.6695,-4.6738,-4.6785,-4.6772,-4.6833,-4.6857,-4.6911,-4.6928,-4.6976,-4.6948,-4.6974,-4.6981,-4.6988,-4.6997,-4.6808,-4.6984,-4.6983,-4.6983,-4.6982,-4.6982,0,-4.6661,-4.6673,-4.6717,-4.6758,-4.6796,-4.6764,-4.6794,-4.6829,-4.6883,-4.6907,-4.6946,-4.7008,-4.7057,-4.7065,-4.7112,-4.715,-4.7138,-4.7163,-4.716,-4.7164,-4.7019,-4.6999,-4.7172,-4.7172,-4.7172,-4.7172,-4.7172,-4.7172,-4.6757,-4.6834,-4.6831,-4.6918,-4.6929,-4.6988,-4.7008,-4.7034,-4.7053,-4.7124,-4.7165,-4.7169,-4.7188,-4.7236,-4.7281,-4.7282,-4.7301,-4.7332,-4.7329,-4.7193,-4.7174,-4.7156,-4.7137,-4.7336,-4.7337,-4.7469,-4.7471,-4.7472]},{"header":{"parameterUnit":"m.s-1","parameterCategory":1,"la1":30.2991,"la2":30.254,"lo1":-89.0895,"lo2":-89.0444,"dy":0.0017,"dx":0.0017,"nx":28,"ny":28,"refTime":"2023-09-21T09:00:00:Z","depth":0,"parameterNumber":3,"parameterNumberName":"V-component_of_WINDS"},"data":[0,0,0,0,0,0,0,0,0,0,0,0,0,0,0,0,0,0,0,0,0,0,0,0,0,0,0,0,0,0,0,0,0,0,0,0,0,0,0,0,0,0,0,0,0,0,0,0,0,0,0,0,0,0,0,0,0,0,-2.3316,-2.3316,0,-2.332,-2.332,-2.332,-2.3272,-2.327,-2.3269,-2.3268,-2.3272,-2.3273,-2.3274,0,0,0,0,0,0,0,0,0,0,0,0,0,-2.3268,-2.327,-2.3316,-2.3316,-2.3316,-2.332,-2.332,-2.332,-2.3272,-2.327,-2.3269,-2.3267,-2.3271,-2.3273,-2.3274,0,0,0,0,0,0,0,0,0,0,0,0,0,-2.3282,-2.327,-2.3316,-2.3293,-2.3291,-2.332,-2.332,-2.332,-2.3272,-2.327,-2.3268,-2.3266,-2.3271,-2.3273,-2.3275,-2.3326,0,0,-2.3281,-2.3282,0,0,0,0,0,0,0,0,-2.3282,-2.3284,-2.3296,-2.3295,-2.3292,-2.3293,-2.3304,-2.3322,-2.3273,-2.3279,-2.3268,-2.3265,-2.3281,-2.3282,-2.3287,-2.3326,-2.3327,-2.3281,-2.3282,-2.3283,-2.3284,0,0,0,0,0,0,0,-2.3281,-2.3284,-2.3318,-2.3297,-2.3294,-2.3282,-2.3282,-2.3307,-2.3291,-2.3279,-2.3275,-2.3276,-2.3279,-2.3285,-2.3286,-2.3327,-2.3281,-2.3283,-2.3284,-2.3285,-2.3408,-2.341,0,0,0,0,0,0,-2.3283,-2.3283,-2.3318,-2.3318,-2.3282,-2.3285,-2.3284,-2.3295,-2.329,-2.3288,-2.3278,-2.3274,-2.3282,-2.3284,-2.3286,-2.3346,-2.3283,-2.3285,-2.3286,-2.3406,-2.3409,-2.3411,0,0,0,0,0,0,-2.3282,-2.3286,-2.3317,-2.33,-2.3303,-2.3288,-2.33,-2.3296,-2.3302,-2.329,-2.3287,-2.3287,-2.3281,-2.3283,-2.3316,-2.3346,-2.3286,-2.3288,-2.3404,-2.3407,-2.341,-2.3467,0,0,0,0,0,0,-2.3281,-2.3286,-2.3306,-2.33,-2.3304,-2.3348,-2.3301,-2.3297,-2.3305,-2.33,-2.3297,-2.3295,-2.3279,-2.3314,-2.3318,-2.3347,-2.3289,-2.3401,-2.3405,-2.3409,-2.3462,-2.3471,-2.3479,0,0,0,0,0,-2.3279,-2.3322,-2.3307,-2.3312,-2.3328,-2.335,-2.3352,-2.3333,-2.3308,-2.3327,-2.3319,-2.3295,-2.3341,-2.3318,-2.3322,-2.3352,-2.3399,-2.3404,-2.3409,-2.3458,-2.347,-2.3479,0,0,0,0,0,0,-2.3332,-2.3321,-2.3304,-2.3347,-2.3349,-2.3342,-2.3366,-2.3345,-2.3355,-2.335,-2.3326,-2.3326,-2.3363,-2.3361,-2.3334,-2.3402,-2.3366,-2.3372,-2.3402,-2.3413,-2.3421,-2.3421,-2.3291,0,0,0,0,0,-2.3349,-2.3367,-2.3356,-2.3395,-2.3397,-2.3381,-2.339,-2.3375,-2.3377,-2.3378,-2.3373,-2.3376,-2.3391,-2.3401,-2.3415,-2.3461,-2.346,-2.3484,-2.3493,-2.35,-2.3505,-2.3529,-2.354,-2.3427,-2.3427,-2.3426,0,0,-2.3383,-2.3379,-2.3393,-2.3405,-2.3406,-2.3425,-2.3383,-2.3405,-2.342,-2.3382,-2.3412,-2.3409,-2.341,-2.345,-2.3468,-2.3449,-2.3536,-2.3506,-2.3511,-2.3513,-2.3535,-2.3546,-2.3556,-2.343,-2.3429,-2.3429,0,0,-2.3457,-2.3455,-2.3487,-2.3488,-2.3489,-2.3478,-2.3485,-2.348,-2.3476,-2.3506,-2.3478,-2.3495,-2.3521,-2.3524,-2.3528,-2.3601,-2.3579,-2.3606,-2.3651,-2.3675,-2.3683,-2.3691,-2.3717,-2.3727,-2.3611,-2.3611,-2.3611,0,-2.35,-2.3528,-2.3506,-2.353,-2.3537,-2.3502,-2.3534,-2.3536,-2.3541,-2.3546,-2.3526,-2.3558,-2.3557,-2.3597,-2.3614,-2.3619,-2.3627,-2.3606,-2.3684,-2.3692,-2.3699,-2.3723,-2.3733,-2.3615,-2.3614,-2.3614,-2.3614,0,-2.3581,-2.3601,-2.3626,-2.3632,-2.3641,-2.3669,-2.3651,-2.3663,-2.3646,-2.3637,-2.3669,-2.3666,-2.3677,-2.3686,-2.367,-2.3723,-2.3712,-2.3688,-2.3652,-2.3713,-2.3736,-2.3745,-2.3619,-2.3618,-2.3617,-2.3616,0,0,-2.3689,-2.3681,-2.3691,-2.3692,-2.369,-2.3705,-2.3731,-2.3742,-2.3753,-2.3757,-2.3779,-2.3801,-2.3779,-2.3784,-2.3769,-2.379,-2.3847,-2.3763,-2.3763,-2.3779,-2.3905,-2.3924,-2.3935,-2.3832,-2.3834,-2.3835,-2.3905,0,-2.376,-2.3805,-2.3785,-2.3831,-2.3849,-2.3816,-2.3839,-2.384,-2.3832,-2.3846,-2.3837,-2.3854,-2.3823,-2.3825,-2.3844,-2.3836,-2.3872,-2.3831,-2.3852,-2.3853,-2.3854,-2.3947,-2.3967,-2.4033,-2.3914,-2.3916,-2.3917,0,-2.385,-2.3857,-2.3906,-2.3899,-2.3906,-2.3927,-2.3935,-2.3949,-2.3949,-2.3942,-2.3947,-2.3926,-2.3951,-2.3915,-2.3949,-2.3921,-2.3928,-2.3926,-2.3928,-2.393,-2.3889,-2.3952,-2.4054,-2.4064,-2.393,-2.3929,-2.3928,0,-2.3924,-2.3946,-2.3978,-2.398,-2.3974,-2.3989,-2.3987,-2.3985,-2.3993,-2.4,-2.4004,-2.4015,-2.402,-2.4029,-2.4011,-2.3986,-2.4048,-2.401,-2.4043,-2.4043,-2.4058,-2.4058,-2.4163,-2.4062,-2.4062,-2.4061,-2.4061,0,-2.4006,-2.4037,-2.4011,-2.4031,-2.4064,-2.404,-2.4074,-2.4068,-2.4067,-2.4084,-2.4056,-2.4073,-2.4049,-2.4064,-2.405,-2.408,-2.4083,-2.4078,-2.4074,-2.4081,-2.4082,-2.4086,-2.4081,-2.4064,-2.4064,-2.4063,-2.4063,0,-2.4096,-2.4079,-2.4112,-2.4102,-2.41,-2.4125,-2.4117,-2.4135,-2.4124,-2.4147,-2.4151,-2.4135,-2.4151,-2.4134,-2.4148,-2.4139,-2.418,-2.4169,-2.418,-2.4178,-2.4212,-2.4209,-2.4325,-2.4339,-2.4228,-2.4229,-2.423,0,-2.415,-2.4173,-2.4165,-2.4175,-2.4174,-2.419,-2.4198,-2.4175,-2.4184,-2.4185,-2.4203,-2.4216,-2.4225,-2.4252,-2.4242,-2.4253,-2.4243,-2.4282,-2.4244,-2.425,-2.4244,-2.4243,-2.4245,-2.429,-2.4292,-2.4293,-2.4294,0,-2.4248,-2.4238,-2.4249,-2.4258,-2.4268,-2.4273,-2.4277,-2.4287,-2.4263,-2.4274,-2.429,-2.4297,-2.4312,-2.4326,-2.4333,-2.4331,-2.4309,-2.4305,-2.4314,-2.4321,-2.4327,-2.4325,-2.4202,-2.4303,-2.4302,-2.4302,-2.4301,-2.4301,-2.4321,-2.4339,-2.4337,-2.4351,-2.4351,-2.4355,-2.437,-2.4361,-2.4374,-2.4384,-2.4369,-2.4389,-2.4388,-2.4396,-2.4396,-2.4411,-2.4394,-2.4406,-2.4409,-2.4413,-2.4418,-2.4324,-2.4412,-2.4412,-2.4412,-2.4411,-2.4411,0,-2.4417,-2.4414,-2.4426,-2.4432,-2.4443,-2.442,-2.4422,-2.4433,-2.445,-2.4451,-2.446,-2.4478,-2.4491,-2.4481,-2.4491,-2.4505,-2.4495,-2.4509,-2.4508,-2.4508,-2.4432,-2.4424,-2.4517,-2.4517,-2.4517,-2.4517,-2.4517,-2.4517,-2.4469,-2.4499,-2.4489,-2.4518,-2.4514,-2.4533,-2.4536,-2.454,-2.454,-2.4561,-2.4571,-2.4564,-2.456,-2.457,-2.4581,-2.4578,-2.4583,-2.4601,-2.4594,-2.4524,-2.4513,-2.4504,-2.4496,-2.4602,-2.4602,-2.4668,-2.4669,-2.467]}]]